Cloud_Cover
0 0 0 0 2 61 83 91 10 66 0 0 0 2 40 28 68 95 100 100 91 100 6 5 3 5 16 12 7 91 42 17 0 0 0 0 3 0 0 0 1 4 35 8 5 5 5 5 9
0 0 0 0 4 20 96 88 100 2 0 1 0 1 92 74 83 100 100 100 68 86 2 3 2 0 3 64 36 53 0 0 0 0 0 0 0 0 0 0 0 0 0 0 0 0 5 4 27
0 0 0 0 30 99 99 99 100 23 4 48 0 0 26 100 100 43 95 86 16 5 1 1 2 0 0 5 5 5 0 0 0 0 1 0 0 0 0 0 0 0 0 0 0 0 0 0 0
0 0 0 0 91 48 100 100 100 61 5 2 3 0 0 71 76 5 30 30 12 3 4 5 5 0 2 4 0 0 0 4 4 0 5 0 0 1 5 0 4 0 0 0 0 0 0 0 0
0 0 0 0 61 69 40 100 100 93 99 2 2 0 0 29 23 90 14 2 7 7 5 26 30 3 4 5 2 13 5 5 7 6 2 5 5 5 0 0 0 0 0 0 0 0 0 0 0
0 0 0 30 70 100 100 87 10 79 21 1 0 0 0 0 2 85 100 55 77 81 87 100 41 0 0 0 3 2 17 100 61 35 26 5 3 0 0 0 0 0 0 0 0 0 0 0 0
0 0 0 3 49 97 52 39 100 29 69 6 16 0 0 0 0 0 0 36 57 100 54 7 0 0 0 0 0 0 17 77 68 6 0 0 0 0 0 0 0 0 0 0 0 0 0 0 0
0 0 0 2 88 100 100 100 100 100 99 9 33 6 0 0 0 0 0 0 0 0 0 0 0 0 0 0 0 0 0 0 0 0 0 0 0 0 0 0 0 0 0 0 0 0 0 0 0
0 0 0 10 100 98 17 80 100 90 39 77 53 0 0 0 0 0 0 0 0 0 0 0 0 0 0 0 0 0 0 0 0 0 0 0 0 0 0 0 0 0 0 0 0 0 0 0 0
0 0 0 12 99 31 90 61 100 100 43 25 0 0 0 0 0 0 0 0 0 3 4 1 0 0 0 0 0 0 0 0 0 0 0 0 0 0 0 0 0 0 0 0 0 0 0 0 0
0 0 1 56 100 78 83 24 38 100 100 100 100 100 6 0 0 0 2 1 0 0 3 52 33 0 84 0 0 0 0 0 0 0 0 0 0 0 0 0 0 0 0 0 0 0 0 0 0
0 0 3 67 46 0 3 0 97 100 89 100 100 100 91 5 0 0 0 0 0 0 0 2 0 0 30 0 0 0 0 0 0 0 0 0 0 0 0 0 0 0 0 0 0 0 0 0 0
0 0 0 4 1 0 0 0 0 100 100 100 100 100 100 32 0 0 0 0 0 0 0 0 0 0 0 0 0 0 0 0 0 0 0 0 0 0 0 0 1 0 2 5 0 0 0 0 0
0 0 0 0 0 0 0 0 0 27 100 100 91 100 100 7 0 0 0 0 0 0 0 0 0 0 0 0 0 0 0 0 0 0 1 5 5 8 9 5 5 5 5 5 5 0 0 0 0
0 0 0 0 0 0 0 0 0 23 100 100 6 5 1 30 0 0 0 0 0 0 0 0 0 0 0 0 0 0 0 0 0 4 96 100 75 100 98 93 21 33 5 5 5 1 0 0 0
0 0 0 0 0 0 0 0 0 0 0 91 98 27 4 0 3 0 0 0 0 0 0 0 0 0 0 0 0 0 0 5 5 5 94 97 97 100 100 70 10 93 72 10 6 3 2 11 35
0 0 0 0 0 0 0 0 0 2 0 1 2 34 16 4 23 6 0 71 100 100 96 6 0 0 0 0 0 0 0 0 0 14 31 100 88 100 100 78 94 42 100 100 30 5 6 51 26
0 0 0 3 0 0 0 0 0 72 26 3 40 3 60 49 22 100 100 100 100 100 100 100 30 0 0 1 0 0 0 0 1 5 17 19 89 100 88 28 66 33 95 27 21 11 5 62 44
0 1 5 3 78 0 0 1 0 64 79 0 0 6 99 100 100 100 100 100 100 100 100 100 100 91 100 91 12 10 5 5 62 5 5 93 94 5 60 5 45 93 68 31 0 0 80 68 22
0 0 0 35 96 0 0 0 4 5 22 5 0 50 4 22 100 100 100 100 100 100 100 100 99 62 59 78 65 100 100 99 100 100 76 53 76 5 4 8 100 84 5 3 1 95 95 82 68
0 0 0 0 4 2 0 0 0 0 0 0 0 0 0 4 100 100 100 100 100 100 100 100 62 38 67 78 99 100 100 99 100 60 8 0 0 19 17 41 5 5 5 46 98 100 100 100 100
0 0 0 0 0 0 1 0 0 1 42 0 0 0 0 0 32 100 100 100 100 100 100 45 0 7 55 27 18 8 54 66 80 100 100 3 0 3 5 5 1 0 3 28 27 100 100 100 100
0 0 0 0 0 0 1 2 5 8 42 0 0 0 0 0 0 0 0 2 72 52 0 0 0 0 0 0 4 87 94 81 0 35 3 0 38 2 0 0 5 0 3 27 34 100 100 100 100
0 0 0 0 0 0 5 0 0 96 45 6 98 0 0 0 0 0 0 0 0 0 18 1 0 0 0 0 0 2 0 0 11 72 74 4 4 5 5 5 4 5 18 74 100 100 100 100 100
4 5 5 5 5 5 4 0 0 37 15 0 2 5 0 0 0 0 0 0 3 1 0 19 1 3 0 0 0 0 0 8 4 3 24 88 6 5 5 5 6 98 100 100 100 43 35 40 85
0 0 0 2 20 90 98 33 95 44 0 0 0 0 0 0 0 0 5 5 4 0 0 5 14 0 0 0 0 0 0 0 0 35 36 5 5 5 5 57 96 94 100 100 67 100 100 11 77
5 1 1 0 4 52 88 98 68 7 50 3 0 0 0 0 2 38 20 5 5 4 5 0 0 0 0 0 0 0 0 0 0 3 20 5 5 21 38 100 100 100 100 100 99 4 5 5 8
5 5 1 3 5 1 67 62 53 52 5 5 5 20 20 73 68 6 5 5 5 5 0 0 0 0 0 0 0 0 0 0 0 3 2 5 6 81 94 100 100 100 77 40 20 62 5 5 39
5 5 25 26 32 5 20 100 90 74 77 77 7 33 30 6 5 5 5 5 4 0 0 0 0 0 0 0 0 0 0 2 0 0 0 0 6 37 96 94 100 100 100 49 31 19 32 24 8
5 5 7 8 43 7 99 100 84 53 49 6 50 5 83 93 5 2 5 0 0 0 0 0 0 0 0 0 0 0 5 3 0 0 0 0 5 100 95 100 100 100 100 5 5 13 5 5 5